KD5UIG Weather Reports


Display with metric or nautical units.
time (UTC)temp
F
wind
direction
speed
MPH
gust
MPH
rain 1hr
in
rain 24hr
in
rain mn
in
humidity
%
barometer
mb
20260510201055 69 246 2.0 8.0 0.01 0.10 0.10 80 1018.7
20260510200556 69 84 2.0 9.0 0.00 0.09 0.09 79 1018.8
20260510200057 69 76 2.0 11.0 0.00 0.09 0.09 78 1018.5
20260510195559 70 5 2.0 11.0 0.00 0.09 0.09 79 1018.3
20260510195056 70 67 4.0 11.0 0.00 0.09 0.09 78 1018.1
20260510194604 70 86 3.0 11.0 0.00 0.09 0.09 78 1017.9
20260510194056 70 70 4.0 11.0 0.00 0.09 0.09 77 1018.1
20260510193600 70 64 4.0 13.0 0.00 0.09 0.09 77 1018.1
20260510193057 70 80 5.0 13.0 0.00 0.09 0.09 76 1018.0
20260510192555 71 37 5.0 13.0 0.00 0.09 0.09 76 1017.9
20260510192055 71 113 4.0 8.0 0.00 0.09 0.09 75 1018.1
20260510191617 71 74 2.0 10.0 0.00 0.09 0.09 76 1018.0
20260510191055 71 57 4.0 10.0 0.00 0.09 0.09 76 1017.9
20260510190559 71 69 4.0 10.0 0.00 0.09 0.09 76 1017.8
20260510190105 71 128 3.0 10.0 0.00 0.09 0.09 74 1017.8
20260510185556 71 21 3.0 12.0 0.00 0.09 0.09 74 1017.8
20260510185055 72 34 3.0 12.0 0.00 0.09 0.09 74 1017.8
20260510184558 72 79 3.0 9.0 0.00 0.09 0.09 73 1017.6
20260510184056 72 65 4.0 9.0 0.00 0.09 0.09 73 1017.5
20260510183555 72 77 3.0 9.0 0.00 0.09 0.09 72 1017.4
20260510183101 73 61 3.0 9.0 0.00 0.09 0.09 72 1017.3
20260510182558 73 63 3.0 8.0 0.00 0.09 0.09 72 1017.1
20260510182054 73 21 3.0 10.0 0.00 0.09 0.09 73 1017.0
20260510181556 72 63 3.0 12.0 0.00 0.09 0.09 73 1016.8
20260510181055 72 71 5.0 12.0 0.00 0.09 0.09 73 1016.8
20260510180556 72 81 3.0 11.0 0.00 0.09 0.09 74 1016.8
20260510180058 72 97 4.0 11.0 0.00 0.09 0.09 73 1016.8
20260510175558 73 22 5.0 11.0 0.00 0.09 0.09 74 1016.8
20260510175055 72 81 4.0 10.0 0.00 0.09 0.09 78 1016.8
20260510174606 71 86 4.0 12.0 0.00 0.09 0.09 78 1016.8
20260510174055 71 65 5.0 12.0 0.00 0.09 0.09 80 1016.7
20260510173557 70 86 5.0 12.0 0.00 0.09 0.09 80 1016.8
20260510173059 70 49 5.0 13.0 0.00 0.09 0.09 83 1017.0
20260510172555 69 72 5.0 13.0 0.00 0.09 0.09 85 1017.0
20260510172055 68 49 5.0 12.0 0.04 0.09 0.09 87 1016.9
20260510171556 68 63 5.0 13.0 0.09 0.09 0.09 89 1016.9
20260510171054 66 73 5.0 13.0 0.09 0.09 0.09 89 1017.0
20260510170555 66 44 4.0 10.0 0.09 0.09 0.09 89 1017.1
20260510170111 65 360 4.0 13.0 0.09 0.09 0.09 89 1017.1
20260510165556 65 360 5.0 13.0 0.09 0.09 0.09 88 1017.1
20260510165058 65 69 3.0 12.0 0.09 0.09 0.09 88 1017.1
20260510164613 65 96 4.0 15.0 0.09 0.09 0.09 87 1017.1
20260510164055 64 51 6.0 15.0 0.09 0.09 0.09 86 1016.8
20260510163556 64 50 8.0 15.0 0.09 0.09 0.09 85 1017.1
20260510163102 65 67 3.0 13.0 0.09 0.09 0.09 84 1017.4
20260510162554 65 53 4.0 13.0 0.09 0.09 0.09 83 1017.1
20260510162055 65 19 6.0 15.0 0.05 0.05 0.05 80 1017.0
20260510161600 66 81 6.0 16.0 0.00 0.00 0.00 77 1017.2
20260510161055 68 360 6.0 16.0 0.00 0.00 0.00 74 1017.3
20260510160555 70 5 6.0 15.0 0.00 0.00 0.00 69 1017.2
20260510160120 72 14 5.0 14.0 0.00 0.00 0.00 65 1017.0
20260510155554 74 54 4.0 18.0 0.00 0.00 0.00 61 1016.7
20260510155055 77 97 6.0 18.0 0.00 0.00 0.00 57 1016.6
20260510154605 79 65 0.0 5.0 0.00 0.00 0.00 59 1016.1
20260510154056 79 170 1.0 9.0 0.00 0.00 0.00 59 1015.3
20260510153555 80 0 1.0 10.0 0.00 0.00 0.00 58 1014.8
20260510153055 80 159 3.0 12.0 0.00 0.00 0.00 59 1014.5
20260510152553 80 355 1.0 12.0 0.00 0.00 0.00 58 1014.1
20260510152058 80 311 2.0 9.0 0.00 0.00 0.00 60 1013.7
20260510151555 79 223 3.0 12.0 0.00 0.00 0.00 59 1013.4
20260510151055 79 167 2.0 12.0 0.00 0.00 0.00 61 1013.4
20260510150555 79 173 2.0 9.0 0.00 0.00 0.00 61 1013.5
20260510145557 77 192 2.0 9.0 0.00 0.00 0.00 63 1013.4
20260510145057 76 214 2.0 9.0 0.00 0.00 0.00 64 1013.4
20260510144622 76 208 3.0 11.0 0.00 0.00 0.00 64 1013.5
20260510144055 76 157 3.0 11.0 0.00 0.00 0.00 63 1013.5
20260510143555 77 192 2.0 10.0 0.00 0.00 0.00 64 1013.6
20260510143056 76 74 1.0 10.0 0.00 0.00 0.00 66 1013.5
20260510142555 75 140 2.0 11.0 0.00 0.00 0.00 67 1013.5
20260510142054 75 360 2.0 11.0 0.00 0.00 0.00 67 1013.6
20260510141556 74 196 2.0 11.0 0.00 0.00 0.00 69 1013.8
20260510141056 73 223 2.0 7.0 0.00 0.00 0.00 70 1013.9
20260510140556 73 157 2.0 6.0 0.00 0.00 0.00 72 1013.9
20260510140057 72 5 1.0 6.0 0.00 0.00 0.00 73 1013.9
20260510135556 71 0 1.0 9.0 0.00 0.00 0.00 74 1014.0
20260510135055 71 0 1.0 9.0 0.00 0.00 0.00 75 1014.1
20260510134556 70 0 1.0 7.0 0.00 0.00 0.00 75 1014.2
20260510134056 70 287 1.0 7.0 0.00 0.00 0.00 75 1014.2
20260510133554 70 154 1.0 6.0 0.00 0.00 0.00 75 1014.2
20260510133056 70 153 1.0 6.0 0.00 0.00 0.00 76 1014.4
20260510132555 70 222 1.0 6.0 0.00 0.00 0.00 76 1014.6
20260510132057 69 216 0.0 5.0 0.00 0.00 0.00 76 1014.5
20260510131555 69 172 0.0 5.0 0.00 0.00 0.00 77 1014.5
20260510131054 69 360 0.0 5.0 0.00 0.00 0.00 78 1014.6
20260510130557 69 0 1.0 5.0 0.00 0.00 0.00 78 1014.4
20260510130056 68 360 0.0 3.0 0.00 0.00 0.00 78 1014.4
20260510125555 68 0 0.0 3.0 0.00 0.00 0.00 79 1014.4
20260510125055 68 0 0.0 5.0 0.00 0.00 0.00 79 1014.4
20260510124612 68 0 0.0 5.0 0.00 0.00 0.00 79 1014.4
20260510124055 68 0 0.0 3.0 0.00 0.00 0.00 79 1014.2
20260510123555 68 98 0.0 3.0 0.00 0.00 0.00 80 1014.2
20260510123058 67 170 0.0 3.0 0.00 0.00 0.00 80 1014.2
20260510122553 67 0 0.0 2.0 0.00 0.00 0.00 80 1014.0
20260510122055 67 0 0.0 2.0 0.00 0.00 0.00 80 1014.0
20260510121556 67 0 0.0 2.0 0.00 0.00 0.00 80 1013.9
20260510121056 67 0 0.0 3.0 0.00 0.00 0.00 80 1013.8
20260510120555 67 107 0.0 3.0 0.00 0.00 0.00 80 1013.8
20260510120055 67 106 0.0 5.0 0.00 0.00 0.00 80 1013.7
20260510115554 67 0 0.0 5.0 0.00 0.00 0.00 80 1013.8
20260510115055 67 76 0.0 4.0 0.00 0.00 0.00 80 1013.6
20260510114555 67 102 0.0 6.0 0.00 0.00 0.00 80 1013.7
20260510114054 67 163 0.0 6.0 0.00 0.00 0.00 80 1013.7
20260510113555 67 155 0.0 6.0 0.00 0.00 0.00 80 1013.5
20260510113101 67 123 0.0 8.0 0.00 0.00 0.00 80 1013.4
20260510112555 67 125 0.0 8.0 0.00 0.00 0.00 79 1013.3
20260510112055 67 130 1.0 6.0 0.00 0.00 0.00 79 1013.3
20260510111557 67 88 1.0 4.0 0.00 0.00 0.00 79 1013.3
20260510111055 67 90 0.0 3.0 0.00 0.00 0.00 79 1013.4
20260510110559 67 0 1.0 3.0 0.00 0.00 0.00 79 1013.4
20260510110057 67 0 0.0 4.0 0.00 0.00 0.00 79 1013.5
20260510105555 67 0 0.0 6.0 0.00 0.00 0.00 79 1013.5
20260510105056 66 205 2.0 6.0 0.00 0.00 0.00 79 1013.5
20260510104603 66 76 1.0 4.0 0.00 0.00 0.00 79 1013.6
20260510104055 66 90 1.0 9.0 0.00 0.00 0.00 79 1013.5
20260510103555 66 65 2.0 9.0 0.00 0.00 0.00 79 1013.5
20260510103059 66 130 1.0 7.0 0.00 0.00 0.00 79 1013.5
20260510102557 66 96 2.0 7.0 0.00 0.00 0.00 79 1013.3
20260510102056 67 142 2.0 5.0 0.00 0.00 0.00 79 1013.2
20260510101555 67 86 1.0 8.0 0.00 0.00 0.00 80 1013.1
20260510101055 67 65 2.0 8.0 0.00 0.00 0.00 80 1013.2
20260510100559 67 67 1.0 9.0 0.00 0.00 0.00 80 1013.0
20260510100054 67 87 2.0 10.0 0.00 0.00 0.00 79 1013.1
20260510095556 67 67 3.0 10.0 0.00 0.00 0.00 79 1013.2
20260510095055 66 46 3.0 11.0 0.00 0.00 0.00 78 1013.2
20260510094608 67 89 5.0 11.0 0.00 0.00 0.00 78 1013.3
20260510094056 67 49 5.0 13.0 0.00 0.00 0.00 77 1013.3
20260510093555 67 69 5.0 13.0 0.00 0.00 0.00 77 1013.3
20260510093118 67 55 5.0 13.0 0.00 0.00 0.00 76 1013.3
20260510092556 68 61 6.0 14.0 0.00 0.00 0.00 76 1013.5
20260510092055 69 88 7.0 14.0 0.00 0.00 0.00 75 1013.4
20260510091559 70 78 4.0 13.0 0.00 0.00 0.00 73 1013.3
20260510091055 70 65 5.0 14.0 0.00 0.00 0.00 73 1012.9
20260510090600 71 71 4.0 14.0 0.00 0.00 0.00 73 1012.7
20260510090055 72 89 4.0 10.0 0.00 0.00 0.00 74 1012.6
20260510085556 72 26 4.0 10.0 0.00 0.00 0.00 73 1012.4
20260510085054 72 74 3.0 13.0 0.00 0.00 0.00 73 1012.0
20260510084601 72 37 4.0 15.0 0.00 0.00 0.00 72 1011.7
20260510084055 72 40 6.0 15.0 0.00 0.00 0.00 72 1011.6
20260510083555 72 59 7.0 15.0 0.00 0.00 0.00 73 1011.3
20260510083058 72 49 4.0 9.0 0.00 0.00 0.00 74 1011.8
20260510082559 72 51 3.0 8.0 0.00 0.00 0.00 75 1012.2
20260510082055 73 63 3.0 9.0 0.00 0.00 0.00 77 1012.3
20260510081556 73 61 2.0 9.0 0.00 0.00 0.00 78 1012.5
20260510081058 73 83 4.0 14.0 0.00 0.00 0.00 79 1012.6
20260510080554 74 82 4.0 14.0 0.00 0.00 0.00 80 1012.4
20260510080056 74 63 3.0 9.0 0.00 0.00 0.00 80 1012.6
20260510075554 74 80 2.0 7.0 0.00 0.00 0.00 80 1012.4
20260510075055 74 78 3.0 10.0 0.00 0.00 0.00 80 1012.3
20260510074553 74 78 3.0 10.0 0.00 0.00 0.00 79 1012.7
20260510074055 75 360 3.0 10.0 0.00 0.00 0.00 78 1012.8
20260510073555 75 313 0.0 5.0 0.00 0.00 0.00 78 1012.5
20260510073056 75 0 1.0 4.0 0.00 0.00 0.00 78 1011.7
20260510072555 75 0 1.0 4.0 0.00 0.00 0.00 77 1011.2
20260510072055 75 78 1.0 5.0 0.00 0.00 0.00 77 1010.9
20260510071556 75 69 1.0 5.0 0.00 0.00 0.00 76 1010.7
20260510071055 75 70 1.0 7.0 0.00 0.00 0.00 75 1010.6
20260510070555 76 76 1.0 7.0 0.00 0.00 0.00 74 1010.4
20260510070054 76 0 1.0 4.0 0.00 0.00 0.00 73 1010.3
20260510065557 76 0 0.0 2.0 0.00 0.00 0.00 72 1010.2
20260510065055 76 70 0.0 4.0 0.00 0.00 0.00 71 1010.2
20260510064553 76 70 0.0 6.0 0.00 0.00 0.00 71 1010.2
20260510064055 76 0 1.0 8.0 0.00 0.00 0.00 71 1010.2
20260510063557 76 77 3.0 8.0 0.00 0.00 0.00 70 1010.0
20260510063056 77 46 1.0 11.0 0.00 0.00 0.00 70 1009.9
20260510062557 77 85 2.0 11.0 0.00 0.00 0.00 69 1009.9
20260510062055 77 76 3.0 12.0 0.00 0.00 0.00 69 1009.7
20260510061554 77 35 3.0 12.0 0.00 0.00 0.00 69 1009.9
20260510061055 77 93 3.0 12.0 0.00 0.00 0.00 68 1009.9
20260510060555 77 59 4.0 14.0 0.00 0.00 0.00 68 1010.1
20260510060054 77 86 7.0 14.0 0.00 0.00 0.00 68 1011.0
20260510055554 77 53 6.0 13.0 0.00 0.00 0.00 69 1011.8
20260510055055 76 51 5.0 12.0 0.00 0.00 0.00 70 1012.4
20260510054556 76 144 4.0 11.0 0.00 0.00 0.00 71 1012.7
20260510054054 76 92 3.0 14.0 0.00 0.00 0.00 71 1012.5
20260510053555 75 20 4.0 14.0 0.00 0.00 0.00 72 1012.1
20260510053101 75 41 4.0 11.0 0.00 0.00 0.00 72 1011.6
20260510052555 75 355 5.0 11.0 0.00 0.00 0.00 71 1011.5
20260510052055 75 322 0.0 3.0 0.00 0.00 0.00 70 1010.8
20260510051557 75 0 0.0 2.0 0.00 0.00 0.00 70 1009.6
20260510051055 75 0 0.0 3.0 0.00 0.00 0.00 70 1009.1
20260510050600 75 0 0.0 4.0 0.00 0.00 0.00 70 1009.0
20260510050058 76 0 0.0 4.0 0.00 0.00 0.00 70 1009.0
20260510045555 76 196 0.0 4.0 0.00 0.00 0.00 70 1009.1
20260510045055 76 0 0.0 4.0 0.00 0.00 0.00 70 1009.1
20260510044553 76 119 0.0 4.0 0.00 0.00 0.00 69 1009.0
20260510044055 76 76 1.0 4.0 0.00 0.00 0.00 69 1008.8
20260510043556 76 98 0.0 8.0 0.00 0.00 0.00 69 1008.7
20260510043101 76 196 0.0 8.0 0.00 0.00 0.00 69 1008.6
20260510042556 76 0 1.0 8.0 0.00 0.00 0.00 69 1008.4
20260510042059 76 168 0.0 3.0 0.00 0.00 0.00 69 1008.4
20260510041554 76 0 0.0 4.0 0.00 0.00 0.00 69 1008.4
20260510041055 76 0 0.0 6.0 0.00 0.00 0.00 69 1008.5
20260510040557 76 121 1.0 6.0 0.00 0.00 0.00 69 1008.5
20260510040057 76 0 0.0 5.0 0.00 0.00 0.00 69 1008.5
20260510035555 76 161 1.0 5.0 0.00 0.00 0.00 69 1008.5
20260510035057 76 321 0.0 4.0 0.00 0.00 0.00 69 1008.6
20260510034557 76 0 0.0 4.0 0.00 0.00 0.00 68 1008.6
20260510034055 76 0 0.0 4.0 0.00 0.00 0.00 68 1008.7
20260510033554 76 86 0.0 4.0 0.00 0.00 0.00 68 1008.9
20260510033112 76 84 1.0 6.0 0.00 0.00 0.00 68 1008.9
20260510032555 76 107 0.0 6.0 0.00 0.00 0.00 68 1008.8
20260510032055 76 0 0.0 4.0 0.00 0.00 0.00 67 1008.8
20260510031558 77 0 0.0 4.0 0.00 0.00 0.00 66 1008.9
20260510031056 77 0 0.0 3.0 0.00 0.00 0.00 66 1008.9
20260510030555 77 0 0.0 3.0 0.00 0.00 0.00 66 1008.8
20260510030104 77 96 0.0 2.0 0.00 0.00 0.00 65 1009.0
20260510025555 78 0 0.0 2.0 0.00 0.00 0.00 65 1009.1
20260510025055 78 84 0.0 3.0 0.00 0.00 0.00 64 1009.1
20260510024604 78 0 0.0 3.0 0.00 0.00 0.00 64 1009.1
20260510024055 78 71 0.0 4.0 0.00 0.00 0.00 64 1009.0
20260510023554 78 82 0.0 4.0 0.00 0.00 0.00 63 1009.0
20260510023054 78 85 1.0 4.0 0.00 0.00 0.00 63 1009.0
20260510022556 79 100 1.0 5.0 0.00 0.00 0.00 63 1009.0
20260510022055 79 0 1.0 5.0 0.00 0.00 0.00 63 1008.9
20260510021559 79 86 1.0 6.0 0.00 0.00 0.00 62 1008.8
20260510021054 79 0 1.0 6.0 0.00 0.00 0.00 62 1008.8
20260510020555 80 74 1.0 4.0 0.00 0.00 0.00 62 1008.8
20260510015556 80 84 1.0 4.0 0.00 0.00 0.00 63 1008.7
20260510015055 80 58 1.0 4.0 0.00 0.00 0.00 63 1008.7
20260510014600 81 0 1.0 6.0 0.00 0.00 0.00 63 1008.8
20260510014055 81 95 1.0 6.0 0.00 0.00 0.00 63 1008.7
20260510013555 81 0 1.0 7.0 0.00 0.00 0.00 62 1008.7
20260510013100 82 109 1.0 7.0 0.00 0.00 0.00 62 1008.5
20260510012556 82 93 1.0 6.0 0.00 0.00 0.00 62 1008.5
20260510012055 82 34 1.0 6.0 0.00 0.00 0.00 61 1008.3
20260510011557 83 96 2.0 5.0 0.00 0.00 0.00 61 1008.2
20260510011054 83 96 2.0 8.0 0.00 0.00 0.00 60 1008.2
20260510010554 84 85 1.0 8.0 0.00 0.00 0.00 60 1008.0
20260510010059 84 86 1.0 7.0 0.00 0.00 0.00 59 1008.0
20260510005555 85 63 2.0 7.0 0.00 0.00 0.00 58 1007.9
20260510005054 85 78 2.0 9.0 0.00 0.00 0.00 58 1008.0
20260510004602 86 92 3.0 9.0 0.00 0.00 0.00 57 1007.8
20260510004055 87 78 2.0 9.0 0.00 0.00 0.00 56 1007.7
20260510003555 87 60 1.0 7.0 0.00 0.00 0.00 55 1007.8
20260510003103 88 107 0.0 4.0 0.00 0.00 0.00 52 1007.7
20260510002556 88 97 1.0 3.0 0.00 0.00 0.00 50 1007.7
20260510002054 88 158 1.0 3.0 0.00 0.00 0.00 49 1007.7
20260510001600 89 0 0.0 6.0 0.00 0.00 0.00 48 1007.7
20260510001055 89 0 0.0 6.0 0.00 0.00 0.00 48 1007.8
20260510000554 89 90 1.0 6.0 0.00 0.00 0.00 46 1007.8
20260510000104 89 130 0.0 3.0 0.00 0.00 0.00 47 1007.9
20260509235557 90 0 0.0 3.0 0.00 0.00 0.00 46 1007.9
20260509235054 90 182 0.0 3.0 0.00 0.00 0.00 47 1007.9
20260509234601 90 190 1.0 3.0 0.00 0.00 0.00 47 1008.1
20260509234055 90 0 0.0 2.0 0.00 0.00 0.00 46 1008.0
20260509233554 90 194 0.0 6.0 0.00 0.00 0.00 47 1008.0
20260509233101 90 103 0.0 7.0 0.00 0.00 0.00 46 1008.1
20260509232555 90 60 1.0 7.0 0.00 0.00 0.00 44 1008.1
20260509232055 90 0 1.0 7.0 0.00 0.00 0.00 46 1008.1
20260509231601 90 70 1.0 7.0 0.00 0.00 0.00 44 1008.1
20260509231054 90 59 2.0 8.0 0.00 0.00 0.00 45 1008.1
20260509230557 90 63 1.0 8.0 0.00 0.00 0.00 45 1008.1
20260509230058 90 0 2.0 8.0 0.00 0.00 0.00 44 1008.1
20260509225555 90 64 3.0 7.0 0.00 0.00 0.00 45 1008.2
20260509225054 91 76 2.0 5.0 0.00 0.00 0.00 44 1008.2
20260509224557 91 78 1.0 4.0 0.00 0.00 0.00 45 1008.2
20260509224054 91 78 0.0 4.0 0.00 0.00 0.00 44 1008.1
20260509223558 90 90 1.0 4.0 0.00 0.00 0.00 44 1008.1
20260509223102 91 96 0.0 4.0 0.00 0.00 0.00 44 1008.0
20260509222555 90 0 0.0 5.0 0.00 0.00 0.00 42 1008.0
20260509222053 91 74 1.0 5.0 0.00 0.00 0.00 41 1008.1
20260509221559 91 0 0.0 6.0 0.00 0.00 0.00 44 1008.1
20260509221055 90 355 3.0 6.0 0.00 0.00 0.00 42 1008.0
20260509220555 91 0 0.0 5.0 0.00 0.00 0.00 41 1008.0
20260509220055 90 72 1.0 4.0 0.00 0.00 0.00 42 1008.1
20260509215554 90 59 1.0 4.0 0.00 0.00 0.00 44 1008.1
20260509215055 91 0 0.0 6.0 0.00 0.00 0.00 44 1008.1
20260509214615 90 44 1.0 7.0 0.00 0.00 0.00 45 1008.2
20260509214055 90 61 2.0 7.0 0.00 0.00 0.00 45 1008.2
20260509213555 90 63 3.0 8.0 0.00 0.00 0.00 45 1008.2
20260509213057 90 78 2.0 8.0 0.00 0.00 0.00 45 1008.5
20260509212555 90 63 1.0 5.0 0.00 0.00 0.00 45 1008.5
20260509212054 90 53 1.0 6.0 0.00 0.00 0.00 46 1008.5
20260509211554 90 84 2.0 8.0 0.00 0.00 0.00 47 1008.6
20260509211058 90 50 1.0 8.0 0.00 0.00 0.00 47 1008.6
20260509210555 90 78 2.0 6.0 0.00 0.00 0.00 47 1008.7
20260509210106 91 63 0.0 5.0 0.00 0.00 0.00 48 1008.7
20260509205554 90 92 0.0 7.0 0.00 0.00 0.00 49 1008.8
20260509205054 90 90 2.0 8.0 0.00 0.00 0.00 48 1009.0
20260509204555 90 107 2.0 9.0 0.00 0.00 0.00 49 1009.1
20260509204054 89 0 3.0 9.0 0.00 0.00 0.00 48 1009.1
20260509203558 89 94 3.0 9.0 0.00 0.00 0.00 49 1009.2
20260509203110 89 14 2.0 9.0 0.00 0.00 0.00 48 1009.2
20260509202555 89 69 3.0 9.0 0.00 0.00 0.00 49 1009.2
20260509202054 90 73 2.0 6.0 0.00 0.00 0.00 51 1009.2
20260509201557 89 0 1.0 8.0 0.00 0.00 0.00 51 1009.2